Regional Weather Roundup
Issued by NWS Cleveland, OH

Home | Current Version | Previous Version | Graphics & Text | Print | Product List | Glossary On
Versions: 1 2 3 4 5 6 7 8 9 10 11 12 13 14 15 16 17 18 19 20 21 22 23 24 25 26 27 28 29 30 31 32 33 34 35 36 37 38 39 40 41 42 43 44 45 46 47 48 49 50
303
ASUS41 KCLE 210410
RWRCLE
OHIO REGIONAL WEATHER ROUNDUP
NATIONAL WEATHER SERVICE WILMINGTON, OH
1100 PM EST FRI JAN 20 2017

NOTE: "FAIR" INDICATES FEW OR NO CLOUDS BELOW 12,000 FEET WITH NO
SIGNIFICANT WEATHER AND/OR OBSTRUCTIONS TO VISIBILITY.

OHZ001>008-015>018-024>027-034-035-043-044-210500-
   NORTHWEST OHIO

CITY           SKY/WX    TMP DP  RH WIND       PRES   REMARKS
DEFIANCE       CLOUDY    45  44  97 SE3       29.74S FOG
FINDLAY        CLOUDY    49  46  90 SE3       29.75R FOG
TOLEDO EXPRESS FOG       41  41 100 CALM      29.74F VSB 1/4
TOLEDO EXEC    FOG       44  44 100 CALM      29.76F VSB 3/4
LIMA           CLOUDY    49  47  93 SE9       29.75R
$$

OHZ009>014-019>023-028>033-038-089-210500-
   NORTHEAST OHIO

CITY           SKY/WX    TMP DP  RH WIND       PRES   REMARKS
CLE-HOPKINS    FAIR      49  45  86 S5        29.80S FOG
CLE-LAKEFRONT  FAIR      44  42  93 CALM      29.77S FOG
CUY CO. ARPT   CLOUDY    46  46 100 CALM      29.79R FOG
LORAIN-ELYRIA  FOG       44  43  96 S3        29.78S VSB 1/4
ASHTABULA      FOG       47  47 100 CALM      29.80R VSB 1/4
AKRON-CANTON   FAIR      50  46  86 SW6       29.80R
WOOSTER        MOCLDY    46  44  93 SW6       29.80R
MANSFIELD      FAIR      48  45  89 S3        29.78S
YOUNGSTOWN     CLOUDY    50  49  96 S3        29.80R
$$

OHZ042-051>053-060>062-070>072-077>081-210500-
  SOUTHWEST OHIO

CITY           SKY/WX    TMP DP  RH WIND       PRES   REMARKS
CINC-COVINGTON CLOUDY    51  47  86 S7        29.74S
CINC-LUNKEN    FOG       45  45 100 CALM      29.77R VSB 3/4
HAMILTON       MOCLDY    47  46  97 CALM      29.77R
DAYTON         MOCLDY    48  46  93 SE7       29.77R
WRIGHT-PAT AFB MOCLDY    43  43 100 CALM      29.77R
DAYTON GENERAL NOT AVBL
WILMINGTON     FAIR      49  46  90 SE3       29.76F
$$

OHZ036-037-039>041-045>050-054>059-063>069-073>076-082>088-210500-
  CENTRAL AND SOUTHEAST OHIO

CITY           SKY/WX    TMP DP  RH WIND       PRES   REMARKS
COLUMBUS       FAIR      51  47  86 SE7       29.78S
OSU AIRPORT    FOG       45  45 100 SE3       29.78R VSB 1/2
BOLTON FIELD   FAIR      48  47  95 S6        29.79S
RICKENBACK AFB   N/A     48  47  98 SE7       29.78S
NEWARK         FOG       39  38  96 CALM      29.79S VSB 1/4
MARION         FAIR      44  42  93 S7        29.78S
LANCASTER      FOG       42  40  92 S3        29.80S VSB 1/2
ZANESVILLE     FOG       43  42  97 CALM      29.81R VSB 3/4
NEW PHILLY     FAIR      42  42 100 SE5       29.82R FOG
$$




USA.gov is the U.S. government's official web portal to all federal, state and local government web resources and services.